Home > Weather > Kowloon > Past weeks

Flag for Hong Kong Past Weather in Kowloon, Hong Kong — Yesterday and Last 2 Weeks

Now
84 °F

Scattered clouds.


Feels Like: 94 °F
Forecast: 83 / 87 °F
Wind: 15 mph from Southeast

Location: National Airport

Current Time: May 27, 2016 at 10:38:35 AM

Latest Report: May 27, 2016 at 10:00 AM


Visibility: N/A

Pressure: 29.74 "Hg

Humidity: 79%

Dew Point: 77 °F

Location of KowloonLocation

Past Weather in Kowloon — Graph

°F

Kowloon Temperature Yesterday

Maximum temperature yesterday: 90 °F (at 3:30 PM)
Minimum temperature yesterday: 82 °F (at 12:30 AM)
Average temperature yesterday: 84 °F

High & Low Weather Summary for the Past Weeks

 TemperatureHumidityPressure
High91 °F (May 25, 12:30 PM)100% (May 21, 1:00 AM)29.98 "Hg (May 21, 1:00 AM)
Low73 °F (May 16, 12:30 AM)48% (May 16, 5:00 PM)29.65 "Hg (May 20, 5:00 PM)
Average81 °F74%29.80 "Hg
* Reported May 12 9:00 AM — May 27 9:30 AM, Kowloon, Weather by CustomWeather, © 2016

Note: Actual official high and low records may vary slightly from our data, if they occured in-between our weather recording intervals... More about our weather records

Advertising

Kowloon Weather History for the Previous 24 Hours

Scroll right to see more
 ConditionsComfort  
Time TempWeatherWind HumidityBarometerVisibility
9:30 AM
Fri, May 27
84 °FScattered clouds.14 mph79%29.71 "HgN/A
9:00 AM82 °FScattered clouds.16 mph84%29.74 "HgN/A
8:30 AM82 °FScattered clouds.15 mph84%29.71 "HgN/A
8:00 AM82 °FScattered clouds.15 mph84%29.71 "HgN/A
7:30 AM81 °FScattered clouds.17 mph89%29.71 "HgN/A
7:00 AM82 °FScattered clouds.17 mph84%29.71 "HgN/A
6:30 AM81 °FSprinkles. Scattered clouds.14 mph94%29.71 "HgN/A
6:00 AM81 °FRain showers. Fog.16 mph94%29.68 "Hg2 mi
5:30 AM81 °FPassing clouds.12 mph94%29.68 "HgN/A
5:00 AM81 °FSprinkles. Passing clouds.14 mph94%29.68 "HgN/A
4:30 AM81 °FSprinkles. Passing clouds.14 mph94%29.68 "Hg5 mi
4:00 AM81 °FRain showers. Passing clouds.13 mph89%29.68 "Hg4 mi
3:30 AM82 °FPassing clouds.13 mph84%29.68 "HgN/A
3:00 AM82 °FPassing clouds.15 mph84%29.68 "HgN/A
2:30 AM82 °FSprinkles. Passing clouds.15 mph89%29.71 "HgN/A
2:00 AM82 °FSprinkles. Passing clouds.17 mph89%29.71 "HgN/A
1:30 AM82 °FSprinkles. Passing clouds.18 mph89%29.71 "HgN/A
1:00 AM84 °FPassing clouds.18 mph79%29.71 "HgN/A
12:30 AM82 °FPassing clouds.18 mph84%29.71 "HgN/A
12:00 AM82 °FPassing clouds.20 mph84%29.74 "HgN/A
11:30 PM
Thu, May 26
82 °FPassing clouds.18 mph84%29.74 "HgN/A
11:00 PM84 °FPassing clouds.17 mph79%29.74 "HgN/A
10:30 PM82 °FPassing clouds.18 mph84%29.74 "HgN/A
10:00 PM82 °FPassing clouds.16 mph84%29.74 "HgN/A
9:30 PM82 °FPassing clouds.17 mph84%29.74 "Hg6 mi
9:00 PM82 °FPassing clouds.21 mph84%29.74 "HgN/A
8:30 PM82 °FPassing clouds.17 mph79%29.71 "HgN/A
8:00 PM84 °FPassing clouds.17 mph74%29.71 "HgN/A
7:30 PM84 °FPassing clouds.17 mph74%29.68 "HgN/A
7:00 PM84 °FScattered clouds.16 mph74%29.68 "HgN/A
6:30 PM84 °FScattered clouds.17 mph74%29.68 "HgN/A
6:00 PM84 °FScattered clouds.16 mph74%29.68 "HgN/A
5:30 PM86 °FPassing clouds.16 mph70%29.68 "HgN/A
5:00 PM88 °FPassing clouds.20 mph66%29.68 "HgN/A
4:30 PM88 °FPassing clouds.20 mph66%29.68 "HgN/A
4:00 PM88 °FPassing clouds.18 mph66%29.68 "HgN/A
3:30 PM90 °FPassing clouds.17 mph63%29.68 "HgN/A
3:00 PM88 °FPassing clouds.17 mph66%29.71 "HgN/A
2:30 PM88 °FPassing clouds.17 mph66%29.71 "HgN/A
2:00 PM88 °FPassing clouds.13 mph66%29.71 "HgN/A
1:30 PM88 °FScattered clouds.16 mph70%29.74 "HgN/A
1:00 PM88 °FScattered clouds.15 mph66%29.74 "HgN/A
12:30 PM86 °FScattered clouds.18 mph70%29.74 "HgN/A
12:00 PM86 °FScattered clouds.15 mph70%29.77 "HgN/A
11:30 AM86 °FScattered clouds.15 mph70%29.77 "HgN/A
11:00 AM86 °FScattered clouds.15 mph70%29.77 "HgN/A
10:30 AM86 °FScattered clouds.13 mph70%29.77 "HgN/A
10:00 AM86 °FScattered clouds.14 mph70%29.77 "HgN/A
Weather by CustomWeather, © 2016

See weather overviewHow to use our weather pages